AL7BX-WX Weather Reports


time (UTC)temp
F
wind
direction
speed
knots
gust
knots
rain 1hr
in
rain 24hr
in
rain mn
in
humidity
%
barometer
mb
20260503020903 66 133 3.5 8.7 0.00 0.00 0.00 19
20260503020003 67 135 4.3 10.4 0.00 0.00 0.00 18
20260503015403 68 129 5.2 12.2 0.00 0.00 0.00 18
20260503014503 68 136 4.3 11.3 0.00 0.00 0.00 19
20260503013603 69 141 4.3 12.2 0.00 0.00 0.00 18
20260503012703 69 150 5.2 11.3 0.00 0.00 0.00 18
20260503011803 70 163 3.5 10.4 0.00 0.00 0.00 18
20260503010903 70 175 4.3 8.7 0.00 0.00 0.00 19
20260503010003 69 169 4.3 12.2 0.00 0.00 0.00 19
20260503005403 70 148 5.2 12.2 0.00 0.00 0.00 18
20260503004503 70 161 5.2 12.2 0.00 0.00 0.00 17
20260503003603 70 147 5.2 10.4 0.00 0.00 0.00 17
20260503002703 71 160 5.2 11.3 0.00 0.00 0.00 17
20260503001803 72 151 5.2 12.2 0.00 0.00 0.00 17
20260503000903 72 145 6.1 13.9 0.00 0.00 0.00 17
20260503000003 72 148 6.1 12.2 0.00 0.00 0.00 17
20260502235403 72 182 7.0 13.9 0.00 0.00 0.00 17
20260502234503 72 198 7.8 15.6 0.00 0.00 0.00 17
20260502233603 73 182 7.0 15.6 0.00 0.00 0.00 17
20260502232703 74 183 6.1 13.9 0.00 0.00 0.00 17
20260502231803 73 194 5.2 12.2 0.00 0.00 0.00 16
20260502231113 74 212 5.2 13.0 0.00 0.00 0.00 17
20260502230003 74 182 6.1 10.4 0.00 0.00 0.00 17
20260502225403 73 161 6.1 11.3 0.00 0.00 0.00 16
20260502224503 73 203 6.1 13.0 0.00 0.00 0.00 18
20260502223603 73 184 7.0 13.9 0.00 0.00 0.00 17
20260502222703 74 169 6.1 12.2 0.00 0.00 0.00 18
20260502221803 74 171 5.2 11.3 0.00 0.00 0.00 17
20260502220903 74 158 5.2 10.4 0.00 0.00 0.00 18
20260502220004 74 167 7.0 17.4 0.00 0.00 0.00 18
20260502215403 74 190 6.1 17.4 0.00 0.00 0.00 18
20260502214504 74 189 7.0 17.4 0.00 0.00 0.00 18
20260502213814 74 186 7.0 15.6 0.00 0.00 0.00 17
20260502212703 73 230 7.0 15.6 0.00 0.00 0.00 20
20260502211803 73 203 5.2 15.6 0.00 0.00 0.00 19
20260502210903 73 225 6.1 14.8 0.00 0.00 0.00 19
20260502210213 73 215 4.3 13.9 0.00 0.00 0.00 19
20260502205403 73 197 6.1 13.9 0.00 0.00 0.00 19
20260502204503 73 248 5.2 13.9 0.00 0.00 0.00 21
20260502203603 73 244 5.2 12.2 0.00 0.00 0.00 20
20260502202703 72 256 5.2 14.8 0.00 0.00 0.00 20
20260502201803 72 244 6.1 14.8 0.00 0.00 0.00 20
20260502200903 72 261 6.1 14.8 0.00 0.00 0.00 22
20260502200213 71 271 5.2 10.4 0.00 0.00 0.00 22
20260502195613 71 248 4.3 10.4 0.00 0.00 0.00 21
20260502194503 70 280 4.3 11.3 0.00 0.00 0.00 21
20260502193603 70 287 4.3 8.7 0.00 0.00 0.00 24
20260502192703 70 244 7.0 13.9 0.00 0.00 0.00 21
20260502191803 70 249 4.3 10.4 0.00 0.00 0.00 22
20260502190903 69 282 3.5 11.3 0.00 0.00 0.00 24
20260502190004 69 302 5.2 12.2 0.00 0.00 0.00 24
20260502185404 69 273 2.6 8.7 0.00 0.00 0.00 28
20260502184503 68 267 3.5 7.8 0.00 0.00 0.00 23
20260502183603 67 311 4.3 8.7 0.00 0.00 0.00 24
20260502182703 68 267 2.6 7.0 0.00 0.00 0.00 22
20260502181803 67 279 2.6 7.8 0.00 0.00 0.00 22
20260502181113 67 240 2.6 6.1 0.00 0.00 0.00 22
20260502163603 60 342 1.7 6.1 0.00 0.00 0.00 27
20260502162703 59 342 1.7 6.1 0.00 0.00 0.00 29
20260502161803 59 310 1.7 3.5 0.00 0.00 0.00 31
20260502160903 58 301 0.9 4.3 0.00 0.00 0.00 31
20260502160214 56 293 1.7 5.2 0.00 0.00 0.00 32
20260502151803 51 198 1.7 2.6 0.00 0.00 0.00 35
20260502151114 50 197 0.9 3.5 0.00 0.00 0.00 37
20260502150213 49 186 0.9 3.5 0.00 0.00 0.00 41
20260502123603 32 171 0.0 0.9 0.00 0.00 0.00 58
20260502122703 32 171 0.9 1.7 0.00 0.00 0.00 58
20260502121803 32 171 0.0 1.7 0.00 0.00 0.00 58
20260502120903 32 171 0.9 2.6 0.00 0.00 0.00 58
20260502115614 32 0 0.0 0.0 0.00 0.00 0.00 57
20260502114503 33 171 0.9 2.6 0.00 0.00 0.00 56
20260502113814 34 171 0.9 2.6 0.00 0.00 0.00 56
20260502112703 34 171 0.9 2.6 0.00 0.00 0.00 56
20260502111803 34 171 0.9 2.6 0.00 0.00 0.00 56
20260502110903 34 172 0.9 2.6 0.00 0.00 0.00 57
20260502110003 34 172 0.0 2.6 0.00 0.00 0.00 56
20260502105403 34 172 0.9 2.6 0.00 0.00 0.00 56
20260502104712 35 172 0.0 1.7 0.00 0.00 0.00 53
20260502103603 36 172 0.9 2.6 0.00 0.00 0.00 53
20260502102703 36 172 0.0 1.7 0.00 0.00 0.00 53
20260502101114 36 174 0.9 2.6 0.00 0.00 0.00 57
20260502090903 36 169 0.0 0.9 0.00 0.00 0.00 53
20260502071113 40 169 0.0 2.6 0.00 0.00 0.00 47
20260502070214 41 0 0.0 0.0 0.00 0.00 0.00 47
20260502065403 41 0 0.0 0.0 0.00 0.00 0.00 45
20260502064503 41 0 0.0 0.0 0.00 0.00 0.00 45
20260502063603 41 0 0.0 0.0 0.00 0.00 0.00 45
20260502062914 41 0 0.0 0.0 0.00 0.00 0.00 45
20260502061803 42 0 0.0 0.0 0.00 0.00 0.00 45
20260502060903 44 0 0.0 0.0 0.00 0.00 0.00 42
20260502060005 44 0 0.0 0.0 0.00 0.00 0.00 40
20260502055403 45 0 0.0 0.0 0.00 0.00 0.00 39
20260502054503 45 0 0.0 0.0 0.00 0.00 0.00 40
20260502053603 44 0 0.0 0.0 0.00 0.00 0.00 39
20260502052703 44 163 0.9 3.5 0.00 0.00 0.00 39
20260502051803 44 26 0.0 0.9 0.00 0.00 0.00 38
20260502050903 44 0 0.0 0.0 0.00 0.00 0.00 38
20260502050004 45 26 0.0 1.7 0.00 0.00 0.00 37
20260502045403 45 26 0.0 1.7 0.00 0.00 0.00 36
20260502044503 47 26 0.0 2.6 0.00 0.00 0.00 35
20260502043603 48 26 0.0 1.7 0.00 0.00 0.00 34
20260502042703 49 27 0.0 0.9 0.00 0.00 0.00 33
20260502041803 50 7 0.9 2.6 0.00 0.00 0.00 32
20260502040903 50 4 0.9 2.6 0.00 0.00 0.00 32
20260502040004 50 5 0.9 2.6 0.00 0.00 0.00 32
20260502035403 49 2 0.9 3.5 0.00 0.00 0.00 33
20260502034503 48 344 0.0 0.9 0.00 0.00 0.00 33
20260502033603 48 344 0.0 0.9 0.00 0.00 0.00 33
20260502032703 49 344 0.0 1.7 0.00 0.00 0.00 34
20260502031803 50 344 0.0 0.9 0.00 0.00 0.00 34
20260502030903 51 344 0.0 1.7 0.00 0.00 0.00 33
20260502030213 52 0 0.0 0.0 0.00 0.00 0.00 33
20260502025403 53 344 0.0 1.7 0.00 0.00 0.00 31
20260502024714 54 344 0.9 3.5 0.00 0.00 0.00 28
20260502023603 55 343 2.6 5.2 0.00 0.00 0.00 27
20260502022703 56 347 2.6 5.2 0.00 0.00 0.00 27
20260502021803 57 346 2.6 4.3 0.00 0.00 0.00 26